Leonardtown, MD

6:12 PM EST on December 14, 2017 (GMT -0500)
Leonardtown

Weather History for K2W6 - June, 2013

Change the Weather History Date:

Friday, June 21, 2013

  Actual Average (KNHK) Record (KNHK)
Temperature  
Mean Temperature 66 °F -  
Max Temperature 78 °F 83 °F 97 °F (2012)
Min Temperature 53 °F 65 °F 54 °F (2004)
Growing Degree Days 16 (Base 50)    
Moisture  
Dew Point 57 °F    
Average Humidity 70    
Maximum Humidity 94    
Minimum Humidity 38    
Precipitation  
Precipitation 0.00 in - - ()
Sea Level Pressure  
Sea Level Pressure 30.29 in    
Wind  
Wind Speed 1 mph (ESE)    
Max Wind Speed 8 mph    
Max Gust Speed -    
Visibility 10 miles    
Events      
Averages and records for this station are not official NWS values.
T = Trace of Precipitation, MM = Missing Value Source: NWS Daily Summary

Daily Weather History Graph

Daily Weather History Graph

Search for Another Location

Airport or City:

Trip Planner

Search our weather history database for the weather conditions in past years. The results will help you decide how hot, cold, wet, or windy it might be!

Date:

Astronomy

Jun. 21, 2013 Rise Set
Actual Time 5:42 AM EDT 8:33 PM EDT
Civil Twilight 5:11 AM EDT 9:04 PM EDT
Nautical Twilight 4:31 AM EDT 9:44 PM EDT
Astronomical Twilight 3:45 AM EDT 10:30 PM EDT
Moon 6:42 PM EDT (6/21) 3:55 AM EDT (6/21)
Length of Visible Light 15h 53m
Length of Day
14h 50m
Waxing Gibbous, 95% of the Moon is Illuminated
Jun 21
Waxing Gibbous
Jun 23
Full
Jun 30
Last Quarter
Jul 8
New
Jul 15
First Quarter

Hourly Weather History & Observations

Time (EDT) Temp. Dew Point Humidity Pressure Visibility Wind Dir Wind Speed Gust Speed Precip Events Conditions
12:12 AM 59.0 °F 50.0 °F 72% 30.29 in 10.0 mi Calm Calm - N/A   Clear
12:32 AM 55.4 °F 50.0 °F 82% 30.29 in 10.0 mi Calm Calm - N/A   Clear
12:52 AM 57.2 °F 50.0 °F 77% 30.29 in 10.0 mi Calm Calm - N/A   Clear
1:12 AM 55.4 °F 50.0 °F 82% 30.30 in 10.0 mi Calm Calm - N/A   Clear
1:32 AM 55.4 °F 50.0 °F 82% 30.30 in 10.0 mi Calm Calm - N/A   Clear
1:52 AM 57.2 °F 50.0 °F 77% 30.30 in 10.0 mi Calm Calm - N/A   Clear
2:12 AM 55.4 °F 50.0 °F 82% 30.30 in 10.0 mi Calm Calm - N/A   Clear
2:32 AM 55.4 °F 50.0 °F 82% 30.30 in 10.0 mi Calm Calm - N/A   Clear
2:52 AM 55.4 °F 50.0 °F 82% 30.30 in 10.0 mi Calm Calm - N/A   Clear
3:12 AM 53.6 °F 50.0 °F 88% 30.30 in 10.0 mi Calm Calm - N/A   Clear
3:32 AM 53.6 °F 50.0 °F 88% 30.29 in 10.0 mi Calm Calm - N/A   Clear
3:52 AM 53.6 °F 50.0 °F 88% 30.29 in 10.0 mi Calm Calm - N/A   Clear
4:13 AM 53.6 °F 51.8 °F 94% 30.29 in 10.0 mi Calm Calm - N/A   Clear
4:33 AM 53.6 °F 51.8 °F 94% 30.28 in 10.0 mi Calm Calm - N/A   Clear
4:53 AM 53.6 °F 51.8 °F 94% 30.28 in 10.0 mi Calm Calm - N/A   Clear
5:13 AM 53.6 °F 51.8 °F 94% 30.28 in 10.0 mi Calm Calm - N/A   Clear
5:33 AM 53.6 °F 51.8 °F 94% 30.28 in 10.0 mi Calm Calm - N/A   Clear
5:53 AM 53.6 °F 51.8 °F 94% 30.29 in 7.0 mi Calm Calm - N/A   Clear
6:13 AM 53.6 °F 51.8 °F 94% 30.29 in 10.0 mi Calm Calm - N/A   Clear
6:33 AM 55.4 °F 51.8 °F 88% 30.29 in 10.0 mi Calm Calm - N/A   Clear
6:53 AM 57.2 °F 53.6 °F 88% 30.30 in 10.0 mi Calm Calm - N/A   Clear
7:13 AM 59.0 °F 55.4 °F 88% 30.30 in 10.0 mi Calm Calm - N/A   Clear
7:33 AM 62.6 °F 59.0 °F 88% 30.30 in 10.0 mi Calm Calm - N/A   Clear
7:53 AM 64.4 °F 59.0 °F 83% 30.31 in 10.0 mi Calm Calm - N/A   Clear
8:13 AM 66.2 °F 59.0 °F 78% 30.31 in 10.0 mi Calm Calm - N/A   Scattered Clouds
8:33 AM 68.0 °F 59.0 °F 73% 30.32 in 10.0 mi East 3.5 mph - N/A   Scattered Clouds
8:53 AM 68.0 °F 59.0 °F 73% 30.32 in 10.0 mi Calm Calm - N/A   Scattered Clouds
9:13 AM 68.0 °F 59.0 °F 73% 30.32 in 10.0 mi East 3.5 mph - N/A   Scattered Clouds
9:33 AM 69.8 °F 59.0 °F 68% 30.31 in 10.0 mi East 5.8 mph - N/A   Clear
9:53 AM 69.8 °F 59.0 °F 68% 30.31 in 10.0 mi Calm Calm - N/A   Clear
10:13 AM 69.8 °F 55.4 °F 60% 30.31 in 10.0 mi NE 3.5 mph - N/A   Clear
10:33 AM 71.6 °F 55.4 °F 57% 30.31 in 10.0 mi ENE 3.5 mph - N/A   Clear
10:53 AM 71.6 °F 51.8 °F 50% 30.31 in 10.0 mi ENE 3.5 mph - N/A   Clear
11:13 AM 73.4 °F 50.0 °F 44% 30.31 in 10.0 mi SE 3.5 mph - N/A   Clear
11:33 AM 73.4 °F 46.4 °F 38% 30.31 in 10.0 mi Calm Calm - N/A   Clear
11:53 AM 73.4 °F 46.4 °F 38% 30.32 in 10.0 mi Calm Calm - N/A   Clear
12:13 PM 73.4 °F 51.8 °F 47% 30.32 in 10.0 mi Calm Calm - N/A   Clear
12:33 PM 75.2 °F 51.8 °F 44% 30.32 in 10.0 mi ESE 3.5 mph - N/A   Clear
12:54 PM 75.2 °F 53.6 °F 47% 30.32 in 10.0 mi NE 4.6 mph - N/A   Clear
1:14 PM 77.0 °F 55.4 °F 47% 30.31 in 10.0 mi SE 3.5 mph - N/A   Clear
1:34 PM 77.0 °F 55.4 °F 47% 30.30 in 10.0 mi Calm Calm - N/A   Clear
1:54 PM 77.0 °F 59.0 °F 54% 30.31 in 10.0 mi ESE 5.8 mph - N/A   Scattered Clouds
2:14 PM 77.0 °F 60.8 °F 57% 30.30 in 10.0 mi ESE 6.9 mph - N/A   Scattered Clouds
2:34 PM 77.0 °F 59.0 °F 54% 30.30 in 10.0 mi East 5.8 mph - N/A   Scattered Clouds
2:54 PM 77.0 °F 60.8 °F 57% 30.30 in 10.0 mi East 5.8 mph - N/A   Scattered Clouds
3:14 PM 77.0 °F 60.8 °F 57% 30.29 in 10.0 mi SE 5.8 mph - N/A   Mostly Cloudy
3:34 PM 78.8 °F 62.6 °F 57% 30.30 in 10.0 mi East 3.5 mph - N/A   Mostly Cloudy
3:54 PM 78.8 °F 60.8 °F 54% 30.29 in 10.0 mi ESE 5.8 mph - N/A   Mostly Cloudy
4:14 PM 77.0 °F 62.6 °F 61% 30.29 in 10.0 mi ESE 6.9 mph - N/A   Mostly Cloudy
4:34 PM 77.0 °F 62.6 °F 61% 30.28 in 10.0 mi ESE 8.1 mph - N/A   Mostly Cloudy
4:54 PM 77.0 °F 62.6 °F 61% 30.29 in 10.0 mi East 4.6 mph - N/A   Mostly Cloudy
5:14 PM 78.8 °F 62.6 °F 57% 30.27 in 10.0 mi East 8.1 mph - N/A   Mostly Cloudy
5:34 PM 78.8 °F 60.8 °F 54% 30.27 in 10.0 mi SSE 5.8 mph - N/A   Scattered Clouds
5:54 PM 77.0 °F 60.8 °F 57% 30.27 in 10.0 mi ESE 5.8 mph - N/A   Clear
6:14 PM 77.0 °F 60.8 °F 57% 30.27 in 10.0 mi SE 5.8 mph - N/A   Clear
6:34 PM 77.0 °F 60.8 °F 57% 30.27 in 10.0 mi SE 6.9 mph - N/A   Clear
6:54 PM 77.0 °F 60.8 °F 57% 30.27 in 10.0 mi SE 6.9 mph - N/A   Clear
7:14 PM 77.0 °F 60.8 °F 57% 30.27 in 10.0 mi SE 4.6 mph - N/A   Clear
7:34 PM 75.2 °F 60.8 °F 61% 30.27 in 10.0 mi SSE 5.8 mph - N/A   Clear
7:54 PM 73.4 °F 60.8 °F 65% 30.27 in 10.0 mi Calm Calm - N/A   Clear
8:14 PM 73.4 °F 62.6 °F 69% 30.27 in 10.0 mi SSE 3.5 mph - N/A   Clear
8:34 PM 71.6 °F 62.6 °F 73% 30.27 in 10.0 mi SSE 3.5 mph - N/A   Clear
8:54 PM 71.6 °F 62.6 °F 73% 30.27 in 10.0 mi SSE 3.5 mph - N/A   Clear
9:14 PM 69.8 °F 62.6 °F 78% 30.27 in 10.0 mi SSE 4.6 mph - N/A   Clear
9:35 PM 69.8 °F 62.6 °F 78% 30.27 in 10.0 mi Calm Calm - N/A   Clear
9:55 PM 69.8 °F 62.6 °F 78% 30.27 in 10.0 mi SE 3.5 mph - N/A   Clear
10:15 PM 68.0 °F 62.6 °F 83% 30.27 in 10.0 mi Calm Calm - N/A   Clear
10:35 PM 68.0 °F 60.8 °F 78% 30.27 in 10.0 mi Calm Calm - N/A   Clear
10:55 PM 68.0 °F 60.8 °F 78% 30.27 in 10.0 mi Calm Calm - N/A   Clear
11:15 PM 64.4 °F 60.8 °F 88% 30.28 in 10.0 mi Calm Calm - N/A   Clear
11:35 PM 64.4 °F 60.8 °F 88% 30.28 in 10.0 mi Calm Calm - N/A   Clear
11:55 PM 66.2 °F 60.8 °F 83% 30.27 in 10.0 mi SE 3.5 mph - N/A   Clear